Location: Darlington Observatory
(36.4817°N, 105.8156°W)
Time: 05:03:14
(UTC-06:00)

Daily predictions for brighter satellites

Satellite Brightness Start Highest point End
(mag) Time Altitude Azimuth Time Altitude Azimuth Time Altitude Azimuth
USA 229 DEB 3.6 00:02:34 10° NNW 00:09:47 89° WSW 00:09:58 86° SSE
USA 229 3.6 00:02:41 10° NNW 00:09:53 90° WSW 00:10:05 86° SSE
H-2A R/B 4.4 00:12:39 17° WNW 00:12:39 17° WNW 00:14:43 10° NW
Lacrosse 5 rocket 3.8 00:22:10 10° NNW 00:25:39 20° NE 00:25:59 20° NE
Cosmos 1821 Rocket 4.1 00:19:37 10° NNW 00:25:25 68° WNW 00:25:25 68° WNW
CZ-2C R/B 3.7 00:29:30 56° NNE 00:29:30 56° NNE 00:33:59 10° N
Cosmos 1727 Rocket 4.3 00:36:07 58° NE 00:36:07 58° NE 00:41:23 10° NNE
Cosmos 2360 Rocket 3.7 00:30:47 10° N 00:35:33 27° ENE 00:35:49 27° ENE
Cosmos 1980 Rocket 3.5 00:31:32 10° NW 00:35:13 32° WNW 00:35:13 32° WNW
ALOS 2 4.3 00:40:12 31° N 00:40:12 31° N 00:42:30 10° NNW
ATLAS CENTAUR R/B 4.0 00:38:29 10° NNW 00:39:19 15° N 00:39:19 15° N
Cosmos 2322 Rocket 2.7 00:41:08 10° NNW 00:45:35 56° NNW 00:45:35 56° NNW
Cosmos 1605 Rocket 4.1 00:42:25 10° N 00:47:39 68° N 00:47:39 68° N
Meteor 1-24 Rocket 4.2 00:57:47 59° NE 00:57:47 59° NE 01:02:43 10° NNE
CZ-2C R/B 3.8 01:07:24 10° N 01:12:02 37° WNW 01:12:02 37° WNW
SeaSat 1 4.1 01:19:51 26° NW 01:19:51 26° NW 01:22:09 10° NW
Cosmos 1459 Rocket 4.1 01:23:39 10° N 01:29:35 73° NE 01:29:35 73° NE
NOSS 3-1 (C) 4.3 01:27:39 10° NW 01:34:45 56° WSW 01:34:45 56° WSW
Cosmos 2221 4.4 01:31:53 10° N 01:34:01 28° N 01:34:01 28° N
SL-16 R/B 3.8 01:32:34 10° NW 01:35:24 25° WNW 01:35:24 25° WNW
Lacrosse 5 3.4 01:40:43 29° NW 01:40:53 29° NW 01:45:18 10° NNE
Cosmos 1802 Rocket 4.0 01:36:01 10° N 01:41:50 75° NNE 01:41:50 75° NNE
Cosmos 2100 Rocket 4.2 01:42:28 10° NNW 01:47:50 63° NW 01:47:50 63° NW
Cosmos 2016 Rocket 4.0 01:44:00 10° N 01:50:12 78° ENE 01:50:12 78° ENE
Cosmos 2227 Rocket 3.9 01:51:59 23° E 01:51:59 23° E 01:55:48 10° NE
USA 234 3.2 01:52:05 67° ESE 01:53:00 81° NE 01:59:34 10° NW
Cosmos 2322 4.3 01:55:37 10° NNW 01:59:42 47° NW 01:59:42 47° NW
Cosmos 2061 Rocket 4.2 01:55:31 10° NNW 02:01:02 61° WNW 02:01:02 61° WNW
Cosmos 2237 4.5 01:57:19 10° NNW 02:02:05 64° NNW 02:02:05 64° NNW
Lacrosse 5 rocket 4.0 02:00:43 10° NW 02:01:39 16° NW 02:01:39 16° NW
NOSS 3-1 (A) 4.5 02:00:06 10° NW 02:06:47 46° W 02:06:47 46° W
ATLAS 2AS CENTAUR R/B 3.7 01:59:56 10° NNW 02:07:41 50° NE 02:13:44 15° ESE
ATLAS 3B CENTAUR R/B 4.2 01:44:36 10° WSW 02:08:43 57° S 02:17:14 10° ESE
Resurs 1-4 Rocket 4.3 02:09:17 10° ENE 02:12:12 15° E 02:13:18 14° ESE
Cosmos 2219 3.4 02:13:01 64° NNW 02:13:01 64° NNW 02:18:03 10° NNE
NOSS 3-3 (A) 4.0 02:12:44 68° ESE 02:12:44 68° ESE 02:18:58 10° NE
NOSS 3-3 (C) 4.0 02:12:50 67° ESE 02:12:50 67° ESE 02:19:03 10° NE
Cosmos 2123 Rocket 3.9 02:13:32 80° WNW 02:13:32 80° WNW 02:19:36 10° N
COSMOS 2428 2.8 02:11:10 10° NNW 02:16:27 75° N 02:16:27 75° N
Cosmos 2360 Rocket 3.5 02:14:25 10° NW 02:17:34 28° WNW 02:17:34 28° WNW
Cosmos 2228 Rocket 4.2 02:15:43 10° N 02:19:15 43° NE 02:19:15 43° NE
Cosmos 2333 4.2 02:19:47 10° NNW 02:25:07 78° NNW 02:25:07 78° NNW
CZ-2D R/B 3.9 02:23:15 10° NE 02:27:02 20° E 02:28:07 19° ESE
Cosmos 1954 Rocket 4.2 02:31:10 67° ENE 02:31:10 67° ENE 02:36:01 10° NNE
Cosmos 2233 Rocket 4.1 02:25:57 10° N 02:32:16 72° E 02:33:17 61° SE
Cosmos 407 Rocket 3.9 02:33:00 54° NW 02:33:00 54° NW 02:37:30 10° N
ARIANE 5 R/B 4.2 02:33:48 10° NE 02:37:46 23° E 02:38:51 21° ESE
Cosmos 1725 Rocket 4.2 02:37:58 10° NNW 02:44:06 55° W 02:44:08 55° W
Cosmos 676 Rocket 4.1 02:47:49 64° WNW 02:47:49 64° WNW 02:52:55 10° NNE
Cosmos 1626 3.7 02:49:52 33° ENE 02:49:52 33° ENE 02:52:33 10° NNE
Cosmos 2333 Rocket 2.3 02:43:58 10° NNW 02:49:42 74° ENE 02:50:57 54° SE
Helios 1A Rocket 4.3 02:47:08 10° N 02:49:52 31° NW 02:49:52 31° NW
Cosmos 1500 Rocket 4.0 02:58:09 57° NNW 02:58:09 57° NNW 03:01:50 10° N
Cosmos 2297 Rocket 2.2 02:56:55 64° SSE 02:57:34 70° ESE 03:03:12 10° NNE
Cosmos 2058 3.3 03:01:26 61° NNE 03:01:26 61° NNE 03:04:53 10° N
Cosmos 1980 3.8 02:56:20 10° NNW 03:02:02 71° ENE 03:04:21 36° SE
Cosmos 2219 Rocket 2.1 02:58:35 10° NNW 03:04:14 67° WSW 03:04:22 66° WSW
NOSS 0 Rocket 3.8 02:58:04 10° NNW 03:04:18 88° WSW 03:06:24 45° SSE
IRS-P3 4.1 03:01:59 10° N 03:07:15 62° WNW 03:07:41 60° W
Cosmos 1805 Rocket 4.4 03:10:37 40° ESE 03:11:21 44° E 03:15:35 10° NNE
Spot 4 Rocket 4.2 03:07:08 10° NNE 03:12:15 63° ESE 03:13:22 50° SSE
COBE Rocket 4.1 03:08:29 10° NNE 03:13:04 57° E 03:13:48 51° SE
DELTA 2 R/B (1) 3.4 03:14:17 66° SSW 03:14:55 74° SSE 03:20:28 10° ENE
ISS -1.5 03:12:42 10° NNW 03:15:30 25° NNE 03:18:17 10° E
Meteor 2-12 Rocket 4.4 03:09:31 10° NNW 03:15:37 68° W 03:16:56 53° SSW
Cosmos 1515 Rocket 4.5 03:15:46 10° NNW 03:18:59 36° WNW 03:18:59 36° WNW
Cosmos 2237 Rocket 2.0 03:15:31 10° NNW 03:21:11 86° WSW 03:23:26 38° SSE
SL-16 R/B 3.5 03:15:57 10° N 03:21:15 39° ENE 03:26:31 10° SE
NPP 4.0 03:18:53 10° N 03:24:01 47° WNW 03:24:51 44° W
IRS-1D 3.6 03:22:47 10° NNE 03:28:09 82° ESE 03:29:46 46° S
Lacrosse 4 Rocket 2.5 03:28:51 31° SE 03:29:36 34° ESE 03:33:23 10° NE
SL-16 R/B 2.5 03:26:03 26° SSE 03:29:44 87° ENE 03:35:57 10° NNW
Cosmos 2227 Rocket 2.8 03:33:48 37° W 03:35:10 43° WNW 03:40:34 10° N
OAO 3 Copernicus 4.2 03:35:01 54° WSW 03:35:56 65° S 03:40:57 10° ESE
Cosmos 1633 Rocket 3.7 03:38:34 30° SSE 03:40:23 50° E 03:44:37 10° NNE
Aureole 2 Rocket 3.3 03:37:08 10° NNW 03:40:29 44° WNW 03:40:29 44° WNW
UNK 3.6 03:40:42 47° S 03:41:58 74° WSW 03:46:35 10° NNW
Sich 1 3.3 03:41:36 39° SSE 03:43:07 67° E 03:47:28 10° NNE
SL-08 R/B 4.2 03:45:31 33° W 03:45:31 33° W 03:49:51 10° NNW
Cosmos 1356 3.9 03:45:57 46° WNW 03:45:57 46° WNW 03:49:02 10° N
Cosmos 2151 4.4 03:47:03 23° WNW 03:47:03 23° WNW 03:50:09 10° NNW
CZ-2D R/B 4.1 03:44:36 10° NNE 03:48:33 49° E 03:50:26 27° SSE
Cosmos 1850 Rocket 4.5 03:47:49 37° WSW 03:49:11 45° WNW 03:54:10 10° N
Resurs 1-4 Rocket 2.2 03:47:09 10° N 03:52:22 59° WNW 03:54:23 36° SW
BREEZE-M R/B 4.3 03:50:35 28° SSW 03:54:08 48° SE 03:58:17 10° ENE
ADEOS Rocket 3.8 03:48:01 10° N 03:55:18 57° WNW 03:59:38 27° SW
ADEOS 3.7 03:50:11 10° N 03:55:20 61° WNW 03:57:25 35° SW
USA 102 3.9 03:54:35 10° NNE 03:57:57 47° ESE 03:58:02 47° ESE
ATLAS 2AS CENTAUR R/B 3.5 03:51:31 10° NW 03:58:22 34° WSW 04:01:00 27° SW
Cosmos 2034 Rocket 4.0 03:54:25 10° NNW 04:00:45 70° W 04:05:27 19° S
Cosmos 1455 2.6 03:58:16 10° NNW 04:01:57 43° W 04:02:20 42° WSW
ADEOS II 4.0 03:57:59 10° NE 04:02:17 25° E 04:06:34 10° SSE
Cosmos 1816 Rocket 4.5 04:02:01 21° S 04:06:30 87° W 04:12:55 10° N
CZ-2D R/B 2.6 04:02:19 10° N 04:07:14 43° WNW 04:09:27 28° WSW
ORS 1 (USA 231) 4.3 04:07:42 66° WSW 04:08:04 86° SSE 04:11:06 10° ENE
BREEZE M DEB (TANK) 3.7 04:08:59 24° SSE 04:09:36 25° SE 04:11:39 10° E
Cosmos 1570 Rocket 4.3 04:06:43 10° NNW 04:11:50 47° WSW 04:15:08 21° SSW
Cosmos 1869 3.2 04:08:02 10° NNW 04:12:03 71° W 04:14:20 24° S
Tsikada Rocket 4.1 04:10:21 23° SSW 04:14:25 63° W 04:20:47 10° N
ARIANE 5 R/B 3.3 04:12:20 10° N 04:16:56 36° WNW 04:19:11 24° WSW
Cosmos 2242 Rocket 3.8 04:13:35 10° N 04:18:05 74° E 04:22:35 10° SSE
SL-24 R/B 3.9 04:15:23 10° NNE 04:19:13 67° E 04:21:47 18° S
Cosmos 1707 Rocket 3.9 04:16:19 10° NNW 04:20:28 44° W 04:22:41 24° SSW
GPS 2-04 Rocket1 3.0 04:20:19 26° WSW 04:22:19 48° SSW 04:26:25 10° ESE
Cosmos 1626 4.4 04:24:32 11° WNW 04:24:36 11° WNW 04:25:35 10° WNW
MOS 1 Rocket 3.7 04:25:03 10° N 04:30:08 61° WNW 04:34:17 17° SSW
Cosmos 2333 Rocket 4.0 04:30:55 10° WNW 04:32:53 12° W 04:32:53 12° W
PSLV R/B 4.4 04:30:10 10° NNE 04:34:07 55° E 04:37:56 10° S
Cosmos 1862 Rocket 3.6 04:34:53 10° N 04:39:13 80° E 04:43:32 10° S
UNKNOWN OBJECT B 4.0 04:38:27 10° NNW 04:41:53 28° WNW 04:44:01 17° WSW
USA 161 1.1 04:41:52 34° WSW 04:42:01 35° W 04:43:52 10° NNW
Cosmos 1933 Rocket 3.6 04:38:07 12° SSW 04:42:09 71° W 04:46:37 10° N
Cosmos 2297 Rocket 4.1 04:38:44 10° W 04:42:09 16° NW 04:45:35 10° NNW
Cosmos 1603 4.1 04:38:22 10° NNW 04:44:05 67° ENE 04:49:42 10° SSE
Cosmos 1315 Rocket 4.3 04:41:29 10° SSE 04:45:14 37° E 04:48:58 10° NNE
Cosmos 332 Rocket 3.7 04:40:33 10° NNW 04:45:24 81° WSW 04:50:16 10° SSE
Cosmos 1486 Rocket 4.0 04:41:28 13° SSW 04:46:01 72° WNW 04:51:15 10° NNE
ISS -3.0 04:49:05 10° WNW 04:51:59 29° SW 04:54:52 10° SSE
ATLAS 3B CENTAUR R/B 3.3 04:43:11 10° W 04:53:17 35° SSW 04:57:36 10° SE
Cosmos 2285 Rocket 4.5 04:49:21 10° NNW 04:55:38 67° ENE 05:01:54 10° SSE
Cosmos 841 Rocket 3.7 04:54:54 10° NNW 05:00:13 81° ENE 05:05:28 10° SSE
DELTA 2 R/B (1) 4.0 04:55:58 10° W 05:01:30 64° N 05:07:01 10° ENE
Okean O Rocket 1.6 04:59:43 10° N 05:04:04 83° WNW 05:08:25 10° SSW
Cosmos 1703 Rocket 4.4 05:00:35 10° N 05:04:53 54° E 05:09:12 10° SSE
SL-16 R/B 3.2 05:00:31 10° NW 05:05:06 26° WSW 05:09:40 10° SSW
GP-B 3.1 05:02:35 10° N 05:07:00 66° W 05:11:23 10° SSW
CZ-4B R/B 3.3 05:02:37 10° NNE 05:07:59 82° ESE 05:13:21 10° SSW
Cosmos 1634 Rocket 4.2 05:02:14 10° NNW 05:08:11 51° W 05:14:05 10° SSW
Lacrosse 4 Rocket 3.2 05:05:28 10° W 05:08:24 19° NW 05:11:23 10° N
Cosmos 1933 3.8 05:05:31 10° NNW 05:09:22 41° W 05:13:13 10° SSW
Cosmos 2279 Rocket 4.0 05:04:45 10° N 05:10:59 86° W 05:17:13 10° S
ATLAS 5 CENTAUR R/B 1.8 05:07:58 10° SSW 05:12:34 81° ESE 05:17:33 10° NE
Meteor 2-3 Rocket 3.8 05:07:07 10° S 05:12:46 83° W 05:18:32 10° N
SL-16 R/B 4.2 05:12:02 10° WSW 05:14:01 12° W 05:16:01 10° WNW
CZ-4B DEB 4.2 05:16:31 10° N 05:21:58 73° WNW 05:27:23 10° SSW
CZ-3 R/B 3.5 05:14:11 10° W 05:44:11 52° SSW 05:51:30 10° SE
